C/2022 F1 ( ATLAS )

Japanese version
Home page
Updated on September 4, 2024

---------------------------------------------------------------------

* Profile

Discovery Date March 30, 2022
Magnitude 18.6 mag
Discoverer Asteroid Terrestrial-Impact Last Alert System (ATLAS) search program

* Orbital Elements

Epoch 2024 Mar. 31.0 TT = JDT 2460400.5
T 2022 Aug. 5.21076 TT                                  Rudenko
q   5.9751315            (2000.0)            P               Q
z  +0.0002342      Peri.  278.29165     +0.05700661     +0.98881309
 +/-0.0000027      Node   350.64420     -0.16270490     -0.12701393
e   0.9986004      Incl.   57.98259     -0.98502658     +0.07820568
>From 134 observations 2022 Mar. 30-2024 Jan. 2, mean residual 0".5.

* Magnitudes Graph

        m1 = -1.5 + 5 log d + 20.0 log r(t - 100)

---------------------------------------------------------------------

The orbital elements are published on M.P.E.C. 2024-G193.
The magnitudes graphs are made with Comet for Windows.

---------------------------------------------------------------------

Copyright(C) Seiichi Yoshida (comet@aerith.net). All rights reserved.